Flight Track Log - Related Links

Times and Time Zones

All times are in EDT time to prevent confusion due to time zone crossing. See the EJA951 flight status page for this flight to view local times or setup timezone preferences in your user account.

Time Position Orientation Groundspeed Altitude Reporting Facility
EDT Latitude Longitude Course Direction KTS MPH feet Rate Location/Type
03:23PM 41.1000 -73.7333 285° West 191 220 1,900  Level New York TRACON
03:24PM 41.1167 -73.8167 285° West 232 267 3,600 2,190 Climbing New York TRACON
03:25PM 41.1489 -73.9178 293° West 286 329 6,900 2,715 Climbing New York Center
03:26PM 41.1878 -74.0217 296° West 286 329 9,800 2,644 Climbing New York Center
03:27PM 41.2272 -74.1008 304° West 286 329 12,100 2,420 Climbing New York Center
03:28PM 41.3003 -74.1653 326° Northwest 279 321 14,600 1,462 Climbing New York Center
03:29PM 41.2728 -74.2547 248° West 229 264 15,000 605 Climbing New York Center
03:30PM 41.1731 -74.2442 175° South 250 288 15,800 492 Climbing New York Center
03:31PM 41.0900 -74.2372 176° South 319 367 16,000 98 Climbing New York Center
03:32PM 41.0633 -74.3569 254° West 278 320 16,000 403 Level New York Center
03:33PM 41.0975 -74.4686 292° West 325 374 16,800 1,119 Climbing New York Center
03:34PM 41.1494 -74.6039 297° West 364 419 18,200 1,686 Climbing New York Center
03:35PM 41.1953 -74.7278 296° West 372 428 20,200 1,686 Climbing New York Center
03:36PM 41.2431 -74.8519 297° West 372 428 21,600 1,339 Climbing New York Center
03:37PM 41.2869 -74.9706 296° West 382 440 22,900 1,424 Climbing New York Center
03:38PM 41.3342 -75.1033 295° West 387 445 24,400 1,627 Climbing New York Center
03:39PM 41.3875 -75.2394 298° West 392 451 26,100 1,488 Climbing New York Center
03:40PM 41.4361 -75.3783 295° West 408 470 27,400 1,289 Climbing New York Center
03:41PM 41.4869 -75.5175 296° West 418 481 28,700 1,279 Climbing New York Center
03:42PM 41.5289 -75.6672 291° West 424 488 30,000 1,361 Climbing New York Center
03:43PM 41.5744 -75.8231 291° West 437 503 31,400 1,169 Climbing New York Center
03:44PM 41.6197 -75.9792 291° West 448 516 32,300 893 Climbing New York Center
03:45PM 41.6664 -76.1467 291° West 461 531 33,200 942 Climbing New York Center
03:46PM 41.7203 -76.3344 291° West 480 552 34,200 857 Climbing New York Center
03:47PM 41.7553 -76.4708 289° West 486 559 34,900 857 Climbing New York Center
03:48PM 41.8086 -76.6592 291° West 491 565 35,900 906 Climbing New York Center
03:50PM 41.8858 -76.9486 290° West 492 566 37,300 788 Climbing Cleveland Center
03:51PM 41.9350 -77.1244 291° West 497 572 38,000 350 Climbing Cleveland Center
03:52PM 41.9797 -77.2981 289° West 497 572 38,000  Level Cleveland Center
03:53PM 42.0283 -77.4744 290° West 497 572 38,000  Level Cleveland Center
03:54PM 42.0769 -77.6514 290° West 497 572 38,000  Level Cleveland Center
03:55PM 42.1208 -77.8256 289° West 497 572 38,000  Level Cleveland Center
03:56PM 42.1667 -78.0058 289° West 497 572 38,000  Level Cleveland Center
03:57PM 42.2142 -78.1806 290° West 497 572 38,000  Level Cleveland Center
03:58PM 42.2594 -78.3583 289° West 497 572 38,000  Level Cleveland Center
03:59PM 42.3067 -78.5392 290° West 497 572 38,000 248 Level Cleveland Center
04:00PM 42.3492 -78.7122 288° West 497 572 38,500 496 Climbing Cleveland Center
04:01PM 42.3981 -78.9047 289° West 492 566 39,000 252 Climbing Cleveland Center
04:02PM 42.4422 -79.0808 289° West 498 573 39,000  Level Cleveland Center
04:03PM 42.4858 -79.2458 290° West 503 579 39,000 250 Level Cleveland Center
04:04PM 42.5003 -79.4286 276° West 498 573 39,500 454 Climbing Cleveland Center
04:05PM 42.5103 -79.6142 274° West 498 573 39,900 250 Climbing Cleveland Center
04:06PM 42.5200 -79.8028 274° West 498 573 40,000 50 Climbing Cleveland Center
04:07PM 42.5275 -79.9917 273° West 503 579 40,000  Level Cleveland Center
04:08PM 42.5303 -80.1775 271° West 499 574 40,000  Level Cleveland Center
04:09PM 42.5372 -80.3661 273° West 499 574 40,000  Level Cleveland Center
04:10PM 42.5497 -80.5775 275° West 493 567 40,000  Level Cleveland Center
04:11PM 42.5581 -80.7608 274° West 498 573 40,000  Level Cleveland Center
04:12PM 42.5617 -80.9497 272° West 498 573 40,000  Level Cleveland Center
04:13PM 42.5714 -81.1358 274° West 498 573 40,000  Level Cleveland Center
04:14PM 42.5994 -81.3222 282° West 498 573 40,000  Level Cleveland Center
04:15PM 42.6253 -81.5086 281° West 503 579 40,000  Level Cleveland Center
04:16PM 42.6508 -81.6925 281° West 503 579 40,000  Level Cleveland Center
04:17PM 42.6739 -81.8681 280° West 496 571 40,000  Level Cleveland Center
04:18PM 42.6989 -82.0578 280° West 496 571 40,000  Level Cleveland Center
04:19PM 42.7256 -82.2422 281° West 501 577 40,000  Level Cleveland Center
04:20PM 42.7519 -82.4267 281° West 506 582 40,000  Level Cleveland Center
04:21PM 42.7736 -82.6111 279° West 506 582 40,000  Level Cleveland Center
04:22PM 42.7994 -82.7989 281° West 506 582 40,000  Level Cleveland Center
04:23PM 42.8228 -82.9864 280° West 506 582 40,000  Level Cleveland Center
04:24PM 42.8481 -83.1717 281° West 506 582 40,000  Level Cleveland Center
04:25PM 42.8706 -83.3594 279° West 506 582 40,000  Level Cleveland Center
04:26PM 42.8933 -83.5419 280° West 506 582 40,000  Level Cleveland Center
04:27PM 42.9133 -83.7272 278° West 506 582 40,000  Level Cleveland Center
04:28PM 42.9372 -83.9156 280° West 506 582 40,000  Level Cleveland Center
04:29PM 42.9589 -84.0983 279° West 506 582 40,000  Level Cleveland Center
04:30PM 42.9694 -84.2039 278° West 498 573 40,000  Level Chicago Center
04:31PM 42.9919 -84.3892 279° West 497 572 40,000  Level Chicago Center
04:32PM 43.0208 -84.6106 280° West 495 570 40,000  Level Chicago Center
04:33PM 43.0656 -84.7903 289° West 500 575 40,000  Level Chicago Center
04:34PM 43.1106 -84.9686 289° West 501 577 40,000  Level Chicago Center
04:35PM 43.1531 -85.1489 288° West 500 575 40,000 -387 Level Chicago Center
04:36PM 43.1964 -85.3264 289° West 497 572 39,200 -1,887 Descending Chicago Center
04:37PM 43.2475 -85.5364 289° West 490 564 36,100 -2,688 Descending Chicago Center
04:38PM 43.2881 -85.7086 288° West 482 555 33,600 -2,448 Descending Chicago Center
04:39PM 43.3292 -85.8844 288° West 489 563 31,000 -2,565 Descending Chicago Center
04:40PM 43.3728 -86.0681 288° West 510 587 28,300 -2,565 Descending Chicago Center
04:41PM 43.4136 -86.2483 287° West 501 577 25,700 -2,710 Descending Chicago Center
04:42PM 43.4606 -86.4547 287° West 476 548 22,700 -2,565 Descending Chicago Center
04:43PM 43.4967 -86.6144 287° West 446 513 20,400 -2,323 Descending Chicago Center
04:44PM 43.5308 -86.7658 287° West 420 483 17,900 -2,081 Descending Chicago Center
04:45PM 43.5661 -86.9131 288° West 410 472 16,100 -1,839 Descending Chicago Center
04:46PM 43.5983 -87.0553 287° West 395 455 14,100 -2,226 Descending Chicago Center
04:47PM 43.6317 -87.2075 287° West 350 403 11,500 -1,984 Descending Chicago Center
04:48PM 43.6603 -87.3356 287° West 349 402 10,000 -871 Descending Chicago Center
04:49PM 43.6744 -87.4392 281° West 298 343 9,700 -1,680 Descending Chicago Center
04:50PM 43.6836 -87.5361 277° West 261 300 6,500 -2,256 Descending Chicago Center
04:51PM 43.6558 -87.6233 246° West 231 266 5,000 -726 Descending Chicago Center
04:52PM 43.6236 -87.6850 234° Southwest 203 234 5,000 -339 Level Chicago Center
04:53PM 43.6094 -87.7500 253° West 188 216 4,300 -774 Descending Chicago Center
04:54PM 43.6339 -87.8061 301° West 197 227 3,400 -774 Descending Chicago Center
04:55PM 43.6864 -87.8222 347° North 195 224 2,700 -484 Descending Chicago Center
04:56PM 43.7461 -87.8042 12° North 195 224 2,400 -387 Descending Chicago Center
04:58PM 43.7917 -87.7894 13° North 182 209 1,900 -387 Descending Chicago Center
04:59PM 43.8100 -87.8439 295° West 168 193 1,600 -290 Descending Chicago Center

Login

Don't have an account? Register now (free) for customized features, flight alerts, and more!